Location: Eurasberg
(48.3353°N, 11.0839°E)
Time: 10:16:14
(UTC+00:00)

Nadezhda 3 Rocket - Pass Details

Date: 18 January 2026
Orbit: 956 x 998 km, 82.9° (Epoch: 10 February)

Event Time Altitude Azimuth Distance (km) Brightness Sun altitude
Rises 05:29:03 0° 345° (NNW) 3,678 6.7 -14.7°
Reaches altitude 10° 05:31:41 10° 339° (NNW) 2,733 6.0 -14.3°
Maximum altitude 05:37:27 41° 271° (W) 1,397 4.4 -13.4°
Drops below altitude 10° 05:43:16 10° 204° (SSW) 2,742 6.3 -12.4°
Sets 05:45:55 0° 197° (SSW) 3,691 7.0 -12.0°
